Regional Weather Roundup
Issued by NWS

Home | Current Version | Previous Version | Text Only | Print | Product List | Glossary On
Versions: 1 2 3 4 5 6 7 8 9 10 11 12 13 14 15 16 17 18 19 20 21 22 23 24 25 26 27 28 29 30 31 32 33 34 35 36 37 38 39 40 41 42 43 44 45 46 47 48 49 50
000
ASUS44 KOUN 231010
RWROK

WEATHER ROUNDUP FOR OKLAHOMA
NATIONAL WEATHER SERVICE NORMAN OK
400 AM CST SUN NOV 23 2014

NOTE: "FAIR" INDICATES FEW OR NO CLOUDS BELOW 12,000 FEET WITH NO
      SIGNIFICANT WEATHER AND/OR OBSTRUCTIONS TO VISIBILITY.

OKZ001>007-009>012-014-015-017-231100-
NORTHWEST OKLAHOMA AND THE PANHANDLE

CITY           SKY/WX    TMP DP  RH WIND       PRES   REMARKS
GAGE           CLEAR     47  46  97 S14       29.41F
ENID/WOODRING  CLEAR     54  52  94 S15G23    29.48F
$$

OKZ016-021>023-033>039-044-045-231100-
SOUTHWEST OKLAHOMA

CITY           SKY/WX    TMP DP  RH WIND       PRES   REMARKS
LAWTON/REGL    CLOUDY    53  52  96 SE12G20   29.54F FOG
LAWTON/FT SILL CLOUDY    53  53 100 S10       29.52F
FREDERICK      CLOUDY    52  52 100 S14       29.49F
CLINTON        CLOUDY    51  49  92 S17       29.48F FOG
HOBART         LGT RAIN  51  51 100 S16       29.49F VSB 1/2
ALTUS AFB      CLOUDY    52  52 100 S13       29.50F FOG
$$

OKZ018>020-024>031-231100-
CENTRAL OKLAHOMA

CITY           SKY/WX    TMP DP  RH WIND       PRES   REMARKS
OKLAHOMA CITY  CLOUDY    55  52  89 S14G24    29.53F
OKC/WILEY POST CLOUDY    54  52  93 S20       29.52F
OKC/TINKER AFB CLOUDY    55  54  94 S10       29.58S
STILLWATER     CLOUDY    57  54  89 S12       29.53F
GUTHRIE        CLOUDY    56  52  86 S14G23    29.52F
$$

OKZ008-013-054>072-231100-
NORTHEAST OKLAHOMA

CITY           SKY/WX    TMP DP  RH WIND       PRES   REMARKS
TULSA          CLOUDY    56  55  97 SE10      29.57F
TULSA/JONES    CLOUDY    57  55  93 S5        29.58F
PONCA CITY     CLOUDY    57  53  86 S13G23    29.52F
BARTLESVILLE   CLOUDY    55  54  96 S12       29.58F FOG
MUSKOGEE       CLOUDY    55  53  93 SE8       29.61F
$$

OKZ032-040>043-046>053-073>077-231100-
SOUTH CENTRAL/SOUTHEAST OKLAHOMA

CITY           SKY/WX    TMP DP  RH WIND       PRES   REMARKS
ARDMORE/DWNTWN CLOUDY    55  54  94 S7        29.60F FOG
MCALESTER      CLOUDY    60  57  89 S6        29.60F
$$




USA.gov is the U.S. government's official web portal to all federal, state and local government web resources and services.